Regional Weather Roundup
Issued by NWS

Home | Current Version | Previous Version | Graphics & Text | Print | Product List | Glossary On
Versions: 1 2 3 4 5 6 7 8 9 10 11 12 13 14 15 16 17 18 19 20 21 22 23 24 25 26 27 28 29 30 31 32 33 34 35 36 37 38 39 40 41 42 43 44 45 46 47 48 49 50
000
ASUS43 KDMX 260106
RWRIA

WEATHER ROUNDUP FOR IOWA
NATIONAL WEATHER SERVICE DES MOINES IA
800 PM CDT THU MAY 25 2017

NOTE: "FAIR" INDICATES FEW OR NO CLOUDS BELOW 12,000 FEET WITH NO
SIGNIFICANT WEATHER AND/OR OBSTRUCTIONS TO VISIBILITY.

* - THESE STATIONS ARE NOT NWS STATIONS...THUS NOT UNDER NWS
QUALITY CONTROL.  THEY ALSO DO NOT REPORT WEATHER SUCH
AS PRECIPITATION OR FOG.

IAZ001>003-012>014-020>022-031>034-043>046-260200-
   NORTHWEST IOWA

CITY           SKY/WX    TMP DP  RH WIND       PRES   REMARKS
CARROLL *      CLOUDY    70  54  56 VRB3G12   29.62R
CHEROKEE *     CLOUDY    71  53  52 CALM      29.61R
DENISON *      CLOUDY    70  52  52 SE5       29.62R
LE MARS *      PTCLDY    70  52  52 S8        29.59R
ORANGE CITY *  CLEAR     70  52  52 S7        29.60R
SHELDON *      MOCLDY    68  52  56 S6        29.59R
SIOUX CITY     CLOUDY    71  53  52 SE9       29.58R
SPENCER        MOCLDY    68  56  65 SE6       29.62R
STORM LAKE *   CLOUDY    68  52  56 S6        29.62R
$$

IAZ055>058-069>071-079>083-090>094-260200-
   SOUTHWEST IOWA

CITY           SKY/WX    TMP DP  RH WIND       PRES   REMARKS
ATLANTIC *     CLOUDY    70  52  52 SE8       29.60R
AUDUBON *      CLOUDY    68  54  60 SE9       29.60R
CLARINDA *     PTCLDY    72  54  53 S10       29.62R
COUNCIL BLFS * MOCLDY    70  54  56 S9G15     29.58R
CRESTON *      PTCLDY    68  52  56 SE14      29.63S
HARLAN  *      CLOUDY    70  52  52 SE13G20   29.62R
LAMONI         PTCLDY    67  53  61 E12G18    29.59F
RED OAK *      PTCLDY    72  54  53 SE9G17    29.60R
SHENANDOAH *   CLOUDY    72  54  53 SE9G17    29.59R
$$

IAZ047>049-059>061-072>074-084-260200-
   CENTRAL IOWA

CITY           SKY/WX    TMP DP  RH WIND       PRES   REMARKS
AMES           CLOUDY    68  51  54 SE13      29.60F
ANKENY *         N/A    N/A N/A N/A MISG      29.59F
BOONE *        PTCLDY    68  54  60 SE14      29.59F
CHARITON *     PTCLDY    68  52  56 SE8       29.65S
DES MOINES     CLOUDY    71  49  45 SE17G23   29.60F
GRINNELL*      PTCLDY    69  48  47 SE7       29.68R
KNOXVILLE *    MOCLDY    68  50  52 SE3       29.66R
MARSHALLTOWN   CLOUDY    68  49  50 SE10      29.66R
NEWTON *       CLEAR     68  48  49 S7        29.67R
PERRY *          N/A     69  48  45 SE13      29.60F
$$

IAZ004>006-015-016-023>025-035-036-260200-
   NORTH CENTRAL IOWA

CITY           SKY/WX    TMP DP  RH WIND       PRES   REMARKS
ALGONA *       CLOUDY    66  52  59 SE6       29.64R
CLARION *      CLOUDY    66  52  59 SE12      29.61F
ESTHERVILLE    CLOUDY    62  57  83 E8        29.62R
FORT DODGE *   PTCLDY    66  50  55 SE10      29.60F
MASON CITY     CLOUDY    64  52  64 SE6       29.67R
FOREST CITY *  LGT RAIN  64  43  45 E3        29.66R
WEBSTER CITY * CLOUDY    68  50  52 SE15      29.58F
$$

IAZ007>011-017>019-026>030-037>042-050>054-066-260200-
   NORTHEAST IOWA

CITY           SKY/WX    TMP DP  RH WIND       PRES   REMARKS
CEDAR RAPIDS   CLEAR     66  52  60 SE6       29.68R
CHARLES CITY * CLOUDY    64  54  68 SE8       29.66S
CLINTON *      CLEAR     65  55  70 E6        29.71S
DUBUQUE        CLEAR     65  54  67 SE3       29.71R
MONTICELLO *   PTCLDY    68  54  60 E6        29.69R
OELWEIN *      CLEAR     66  50  55 SE8       29.68S
WATERLOO       PTCLDY    67  47  48 S6        29.66R
$$

IAZ064-065-067-068-078-260200-
   EAST CENTRAL IOWA

CITY           SKY/WX    TMP DP  RH WIND       PRES   REMARKS
DAVENPORT      CLEAR     66  54  65 E8        29.70R
IOWA CITY      CLEAR     69  49  48 S5        29.69R
MT. PLEASANT * CLEAR     68  51  54 SE6       29.68S
MUSCATINE *    CLEAR     70  50  49 S5        29.69R
QUAD CITIES    CLEAR     66  54  65 E9        29.69R
$$

IAZ062-063-075>077-085>089-095>099-260200-
   SOUTHEAST IOWA

CITY           SKY/WX    TMP DP  RH WIND       PRES   REMARKS
BURLINGTON     CLEAR     68  54  60 SE3       29.69R
FAIRFIELD *    CLEAR     68  50  52 MISG      29.67S
FORT MADISON * CLEAR     70  54  56 CALM      29.70S
KEOKUK *       CLEAR     68  54  60 SE5       29.68S
OSKALOOSA *      N/A     69  48  47 S6        29.68R
CENTERVILLE *    N/A     64  54  68 CALM      29.70R
OTTUMWA        CLEAR     67  50  54 SE5       29.67R
WASHINGTON *   CLEAR     70  50  49 SE5       29.69R
$$

ABBREVIATIONS USED IN REMARKS
   TC - TEMPERATURES IN CELSIUS
  WCI - WIND CHILL INDEX
   HX - HEAT INDEX
  VSB - VISIBILITY
$$





USA.gov is the U.S. government's official web portal to all federal, state and local government web resources and services.